FW2738 Weather Reports


Display with metric or nautical units.
time (UTC)temp
F
wind
direction
speed
MPH
gust
MPH
rain 1hr
in
rain 24hr
in
rain mn
in
humidity
%
barometer
mb
20260505211544 86 172 5.0 16.0 0.00 0.00 0.00 63 1002.2
20260505210039 85 188 10.0 14.0 0.00 0.00 0.00 65 1002.3
20260505204539 85 164 8.0 17.0 0.00 0.00 0.00 66 1002.3
20260505203036 84 202 11.0 17.0 0.00 0.00 0.00 68 1002.7
20260505201538 83 199 10.0 20.0 0.00 0.00 0.00 68 1002.8
20260505200036 83 161 10.0 24.0 0.00 0.00 0.00 67 1002.8
20260505194534 83 199 11.0 22.0 0.00 0.00 0.00 68 1003.0
20260505193033 84 165 14.0 21.0 0.00 0.00 0.00 66 1002.9
20260505191533 83 186 10.0 21.0 0.00 0.00 0.00 69 1002.6
20260505190029 81 202 13.0 21.0 0.00 0.00 0.00 68 1002.8
20260505184528 81 171 12.0 21.0 0.00 0.00 0.00 68 1002.9
20260505183034 81 209 14.0 24.0 0.00 0.00 0.00 68 1003.0
20260505181526 81 194 14.0 26.0 0.00 0.00 0.00 69 1003.2
20260505180042 82 217 12.0 25.0 0.00 0.00 0.00 69 1002.8
20260505174522 80 217 13.0 27.0 0.00 0.00 0.00 72 1002.9
20260505173019 79 171 16.0 25.0 0.00 0.00 0.00 74 1002.8
20260505171515 77 167 12.0 22.0 0.00 0.00 0.00 77 1003.4
20260505170015 76 168 11.0 21.0 0.00 0.00 0.00 78 1002.8
20260505164514 76 200 13.0 24.0 0.00 0.00 0.00 78 1002.7
20260505163013 76 190 19.0 29.0 0.00 0.00 0.00 77 1003.6
20260505161513 77 200 17.0 27.0 0.00 0.00 0.00 77 1002.9
20260505153010 75 189 14.0 27.0 0.00 0.00 0.00 80 1003.0
20260505151503 74 172 17.0 25.0 0.00 0.00 0.00 80 1003.0
20260505124551 70 173 11.0 25.0 0.00 0.00 0.00 85 1002.6
20260505123053 70 192 14.0 22.0 0.00 0.00 0.00 86 1002.5
20260505121549 70 173 14.0 21.0 0.00 0.00 0.00 85 1002.5
20260505120051 70 175 13.0 22.0 0.00 0.00 0.00 85 1002.4
20260505114550 70 180 14.0 23.0 0.00 0.00 0.00 85 1002.3
20260505113051 70 180 14.0 20.0 0.00 0.00 0.00 85 1002.3
20260505111545 70 198 13.0 22.0 0.00 0.00 0.00 84 1002.2
20260505101559 70 157 13.0 24.0 0.00 0.00 0.00 85 1002.2
20260505100057 70 198 13.0 22.0 0.00 0.00 0.00 85 1002.3
20260505094539 70 210 16.0 23.0 0.00 0.00 0.00 85 1002.3
20260505093038 70 198 16.0 25.0 0.00 0.00 0.00 85 1002.6
20260505091536 70 185 15.0 27.0 0.00 0.00 0.00 85 1002.6
20260505090035 69 174 13.0 24.0 0.00 0.00 0.00 85 1002.6
20260505084535 69 171 13.0 26.0 0.00 0.00 0.00 85 1002.7
20260505083032 70 159 16.0 23.0 0.00 0.00 0.00 84 1002.6
20260505081530 70 197 15.0 25.0 0.00 0.00 0.00 83 1002.8
20260505080032 70 184 16.0 29.0 0.00 0.00 0.00 83 1003.0
20260505074525 70 211 15.0 30.0 0.00 0.00 0.00 82 1003.2
20260505073033 70 166 16.0 27.0 0.00 0.00 0.00 81 1003.3
20260505071520 71 201 13.0 28.0 0.00 0.00 0.00 81 1003.5
20260505070018 71 220 16.0 29.0 0.00 0.00 0.00 80 1003.8
20260505064519 71 179 10.0 25.0 0.00 0.00 0.00 79 1003.7
20260505063015 71 185 15.0 27.0 0.00 0.00 0.00 79 1004.0
20260505061521 71 174 14.0 24.0 0.00 0.00 0.00 78 1003.9
20260505060011 71 159 15.0 22.0 0.00 0.00 0.00 77 1004.0
20260505054510 71 162 14.0 27.0 0.00 0.00 0.00 77 1004.2
20260505053019 71 184 13.0 21.0 0.00 0.00 0.00 76 1004.3
20260505051517 71 148 14.0 22.0 0.00 0.00 0.00 75 1004.4
20260505041508 71 171 15.0 23.0 0.00 0.00 0.00 74 1004.6
20260505040004 71 182 15.0 20.0 0.00 0.00 0.00 73 1004.6
20260505034503 72 158 12.0 20.0 0.00 0.00 0.00 72 1004.8
20260505033005 72 161 13.0 26.0 0.00 0.00 0.00 72 1005.0
20260505031501 72 186 11.0 23.0 0.00 0.00 0.00 72 1005.0
20260505030002 72 167 9.0 18.0 0.00 0.00 0.00 71 1005.1
20260505024501 73 170 9.0 19.0 0.00 0.00 0.00 70 1004.9
20260505023105 73 153 11.0 19.0 0.00 0.00 0.00 69 1004.9
20260505021600 73 165 11.0 18.0 0.00 0.00 0.00 68 1004.7
20260505020059 74 158 10.0 18.0 0.00 0.00 0.00 67 1004.8
20260505014606 74 177 12.0 21.0 0.00 0.00 0.00 67 1004.5
20260505013059 74 175 15.0 26.0 0.00 0.00 0.00 66 1004.3
20260505011556 74 200 11.0 21.0 0.00 0.00 0.00 66 1004.4
20260505010115 75 157 11.0 19.0 0.00 0.00 0.00 66 1004.5
20260505004555 75 200 11.0 20.0 0.00 0.00 0.00 64 1004.6
20260505003057 76 203 16.0 25.0 0.00 0.00 0.00 62 1004.6
20260505001553 77 173 12.0 25.0 0.00 0.00 0.00 61 1004.6
20260505000051 77 184 17.0 33.0 0.00 0.00 0.00 60 1004.6
20260504234549 77 202 15.0 30.0 0.00 0.00 0.00 60 1004.7
20260504233048 78 188 14.0 32.0 0.00 0.00 0.00 58 1004.8
20260504231548 78 199 20.0 33.0 0.00 0.00 0.00 57 1005.0
20260504230048 79 182 21.0 33.0 0.00 0.00 0.00 55 1005.4
20260504224545 80 170 19.0 28.0 0.00 0.00 0.00 55 1005.2
20260504223058 80 182 17.0 28.0 0.00 0.00 0.00 54 1005.5
20260504221556 79 165 21.0 31.0 0.00 0.00 0.00 53 1005.6
20260504220043 80 167 16.0 26.0 0.00 0.00 0.00 53 1005.8
20260504214540 80 180 15.0 25.0 0.00 0.00 0.00 52 1005.9
20260504213057 80 189 17.0 29.0 0.00 0.00 0.00 50 1006.1